Total_Precipitation_Accumulation
0.05 0.08 0.14 0.13 0.11 0.19 0.20 0.21 0.29 0.35 0.29 0.35 0.50 0.66 0.90 1.09 1.37 1.64 1.63 1.59 1.66 1.95 2.27 2.47 2.86 3.27 3.54 3.72 3.83 4.16 4.33 4.10 3.65 3.26 2.79 2.67 2.62 2.39 2.20 2.11 1.94 2.11 2.05 2.28
0.05 0.07 0.08 0.06 0.06 0.11 0.15 0.17 0.29 0.36 0.30 0.35 0.51 0.84 1.04 1.10 1.15 1.31 1.43 1.37 1.47 1.79 1.89 1.98 2.12 2.47 2.69 2.94 3.22 3.56 3.79 3.66 3.08 2.85 2.67 2.59 2.56 2.40 2.42 2.29 2.27 2.01 2.01 2.25
0.04 0.06 0.06 0.05 0.05 0.08 0.14 0.15 0.20 0.30 0.34 0.44 0.57 1.21 1.31 1.10 1.02 0.96 1.13 1.20 1.20 1.40 1.62 1.72 1.76 1.88 2.14 2.72 2.95 2.85 3.10 3.29 3.01 2.92 2.87 2.78 2.75 2.55 2.64 2.58 2.46 2.07 1.93 1.95
0.04 0.04 0.03 0.05 0.06 0.07 0.14 0.13 0.13 0.18 0.27 0.58 0.67 1.31 1.40 1.17 1.17 0.97 0.94 0.99 0.94 0.93 1.21 1.42 1.39 1.45 1.68 2.00 2.30 2.65 2.97 3.06 2.97 2.86 2.70 2.60 2.39 2.33 2.35 2.33 2.33 2.20 2.08 1.95
0.04 0.03 0.03 0.05 0.05 0.06 0.08 0.08 0.10 0.17 0.28 0.52 0.64 1.06 1.32 1.17 1.35 1.08 0.76 0.64 0.60 0.61 0.76 0.94 1.07 1.21 1.28 1.43 1.84 2.42 2.89 3.12 3.00 2.68 2.55 2.67 2.52 2.43 2.38 2.25 2.43 2.29 2.14 1.97
0.04 0.03 0.03 0.03 0.04 0.04 0.05 0.08 0.19 0.34 0.50 0.90 0.86 0.95 1.25 1.06 0.90 0.71 0.55 0.45 0.46 0.52 0.55 0.64 0.77 1.00 1.14 1.24 1.51 1.96 2.40 2.68 2.74 2.60 2.47 2.54 2.64 2.60 2.46 2.33 2.29 2.11 2.07 2.00
0.09 0.08 0.05 0.04 0.04 0.05 0.05 0.10 0.40 0.69 0.93 1.07 0.70 0.90 1.26 0.83 0.66 0.56 0.48 0.44 0.40 0.41 0.54 0.67 0.76 0.89 0.92 1.00 1.27 1.59 1.82 2.03 2.25 2.41 2.45 2.39 2.56 2.63 2.41 2.18 2.22 2.18 2.02 2.02
0.11 0.18 0.09 0.05 0.06 0.06 0.06 0.09 0.25 0.43 0.54 0.66 0.69 1.35 1.24 0.65 0.52 0.44 0.38 0.39 0.39 0.45 0.54 0.65 0.81 0.89 0.85 0.89 1.12 1.36 1.56 1.79 2.06 2.22 2.29 2.24 2.21 2.12 2.08 2.21 2.11 2.11 2.09 2.04
0.05 0.08 0.07 0.06 0.05 0.06 0.07 0.08 0.12 0.19 0.25 0.49 0.82 1.03 0.78 0.45 0.42 0.44 0.40 0.42 0.47 0.55 0.67 0.76 0.90 0.95 0.87 0.93 1.12 1.25 1.47 1.65 1.79 2.04 2.22 2.13 2.08 1.95 1.93 1.98 1.95 1.90 2.05 2.02
0.04 0.05 0.05 0.05 0.05 0.07 0.07 0.07 0.11 0.13 0.21 0.38 0.68 0.93 1.00 0.75 0.59 0.48 0.47 0.50 0.52 0.66 0.84 0.97 0.97 1.00 0.97 1.04 1.23 1.28 1.39 1.48 1.52 1.69 1.77 1.67 1.86 1.88 2.00 1.98 1.89 1.82 1.82 1.87
0.03 0.03 0.04 0.05 0.06 0.09 0.09 0.07 0.07 0.09 0.12 0.25 0.56 0.75 0.72 0.69 0.65 0.50 0.47 0.56 0.64 0.67 0.85 0.97 0.93 0.93 0.90 0.96 1.06 1.08 1.21 1.33 1.39 1.54 1.62 1.69 1.79 1.84 1.89 1.92 1.91 1.91 1.92 1.93
0.03 0.03 0.04 0.07 0.08 0.08 0.11 0.12 0.12 0.11 0.10 0.16 0.28 0.44 0.41 0.48 0.55 0.48 0.51 0.64 0.74 0.59 0.67 0.88 0.96 0.99 0.80 0.85 0.92 0.98 1.11 1.24 1.31 1.49 1.63 1.70 1.88 1.93 1.87 1.91 2.12 2.12 2.07 2.03
0.03 0.03 0.06 0.12 0.17 0.13 0.09 0.09 0.11 0.12 0.12 0.12 0.20 0.37 0.36 0.40 0.51 0.50 0.58 0.69 0.70 0.68 0.68 0.84 0.93 0.86 0.78 0.80 0.87 0.91 1.02 1.15 1.25 1.40 1.56 1.77 1.88 1.94 2.09 2.27 2.43 2.45 2.35 2.30
0.03 0.03 0.05 0.13 0.21 0.25 0.19 0.11 0.11 0.11 0.12 0.11 0.15 0.28 0.35 0.46 0.54 0.54 0.57 0.72 0.71 0.66 0.64 0.65 0.82 0.88 0.81 0.78 0.81 0.86 1.00 1.14 1.32 1.58 1.76 1.90 2.11 2.26 2.38 2.35 2.42 2.43 2.43 2.46
0.03 0.02 0.03 0.06 0.10 0.15 0.16 0.12 0.11 0.10 0.09 0.12 0.16 0.27 0.37 0.46 0.55 0.61 0.62 0.61 0.63 0.59 0.62 0.76 0.89 1.06 1.05 0.97 0.90 0.93 1.17 1.38 1.60 1.89 2.00 2.04 2.13 2.27 2.47 2.64 2.66 2.62 2.58 2.51
0.05 0.05 0.05 0.06 0.09 0.11 0.11 0.11 0.10 0.08 0.08 0.10 0.15 0.27 0.39 0.51 0.58 0.53 0.55 0.53 0.57 0.66 0.74 0.89 1.03 1.18 1.28 1.31 1.29 1.32 1.47 1.74 2.04 2.36 2.49 2.62 2.71 2.79 2.88 2.96 3.00 3.02 2.95 2.88
0.16 0.16 0.15 0.13 0.13 0.14 0.13 0.13 0.12 0.11 0.12 0.14 0.21 0.30 0.45 0.59 0.57 0.63 0.66 0.63 0.72 0.79 0.88 1.00 1.11 1.21 1.36 1.41 1.49 1.68 1.86 2.10 2.34 2.53 2.65 2.77 2.88 3.03 3.17 3.20 3.23 3.09 3.02 2.94
0.36 0.33 0.26 0.20 0.24 0.28 0.19 0.21 0.23 0.25 0.28 0.31 0.35 0.41 0.50 0.62 0.63 0.68 0.72 0.70 0.73 0.85 1.03 1.07 1.14 1.27 1.37 1.50 1.68 1.88 2.04 2.16 2.47 2.71 2.81 2.87 2.92 3.00 3.19 3.38 3.28 3.12 3.08 3.01
0.43 0.50 0.47 0.35 0.33 0.35 0.35 0.32 0.31 0.41 0.53 0.49 0.64 0.71 0.67 0.70 0.76 0.78 0.78 0.93 0.95 0.94 1.03 1.10 1.21 1.32 1.46 1.54 1.60 1.62 1.74 1.95 2.20 2.44 2.64 2.65 2.80 2.98 3.08 3.11 3.12 3.19 3.16 2.95
0.36 0.41 0.49 0.51 0.53 0.53 0.54 0.51 0.39 0.45 0.81 0.80 0.88 0.98 0.93 0.96 1.19 1.12 0.85 0.84 0.96 1.05 1.10 1.20 1.32 1.40 1.40 1.43 1.47 1.55 1.71 1.94 2.17 2.38 2.59 2.77 2.92 3.08 3.10 3.13 3.24 3.28 3.24 3.20
0.56 0.57 0.56 0.58 0.63 0.62 0.54 0.49 0.51 0.87 1.16 1.12 1.19 1.22 1.15 1.19 1.26 1.21 1.03 0.94 0.95 1.00 1.06 1.15 1.30 1.46 1.48 1.46 1.63 1.81 1.95 2.11 2.29 2.43 2.53 2.67 2.85 3.08 3.34 3.51 3.43 3.41 3.36 3.28
0.79 0.79 0.77 0.80 1.00 1.12 0.82 0.74 0.98 1.18 0.94 0.99 1.16 1.37 1.40 1.33 1.26 1.21 1.12 1.05 0.98 0.93 0.99 1.19 1.32 1.45 1.59 1.69 1.84 2.01 2.06 2.12 2.33 2.54 2.64 2.71 2.91 2.99 3.14 3.40 3.41 3.33 3.29 3.21
0.92 1.02 1.11 1.15 1.33 1.21 1.02 1.03 0.97 1.06 1.23 1.29 1.38 1.58 1.60 1.46 1.32 1.34 1.28 1.17 1.06 1.02 1.06 1.19 1.32 1.46 1.56 1.74 1.94 2.11 2.19 2.25 2.36 2.50 2.67 2.86 2.98 3.04 3.16 3.33 3.38 3.36 3.26 3.12
0.96 0.83 1.05 1.36 1.50 1.32 1.15 1.12 1.07 1.13 1.33 1.41 1.40 1.44 1.47 1.44 1.37 1.50 1.53 1.37 1.30 1.29 1.27 1.31 1.40 1.48 1.58 1.68 1.88 2.09 2.23 2.27 2.39 2.47 2.53 2.69 2.84 2.98 3.15 3.17 3.04 2.92 2.78 2.70
1.03 1.04 1.23 1.64 1.83 1.75 1.53 1.39 1.31 1.33 1.29 1.37 1.32 1.35 1.36 1.40 1.40 1.48 1.61 1.62 1.54 1.41 1.35 1.40 1.50 1.60 1.63 1.67 1.77 2.01 2.22 2.32 2.36 2.48 2.55 2.54 2.56 2.66 2.83 2.91 2.86 2.73 2.57 2.43
1.15 1.35 1.68 2.06 2.03 2.13 1.97 1.63 1.45 1.51 1.50 1.45 1.41 1.47 1.51 1.50 1.46 1.50 1.64 1.67 1.63 1.51 1.46 1.49 1.54 1.58 1.61 1.71 1.83 1.94 2.22 2.49 2.57 2.56 2.43 2.35 2.28 2.29 2.36 2.40 2.43 2.55 2.43 2.43